Regional Weather Roundup
Issued by NWS Little Rock, AR

Home | Current Version | Previous Version | Graphics & Text | Print | Product List | Glossary On
Versions: 1 2 3 4 5 6 7 8 9 10 11 12 13 14 15 16 17 18 19 20 21 22 23 24 25 26 27 28 29 30 31 32 33 34 35 36 37 38 39 40 41 42 43 44 45 46 47 48 49 50
000
ASUS44 KLZK 251005
RWRLZK

WEATHER ROUNDUP FOR ARKANSAS
NATIONAL WEATHER SERVICE LITTLE ROCK AR
500 AM CDT FRI JUL 25 2014

NOTE: "FAIR" INDICATES FEW OR NO CLOUDS BELOW 12,000 FEET WITH NO
SIGNIFICANT WEATHER AND/OR OBSTRUCTIONS TO VISIBILITY.

ARZ001-003-010-029-251100-
NORTHWEST ARKANSAS

CITY           SKY/WX    TMP DP  RH WIND       PRES   REMARKS
FAYETTEVILLE   CLEAR     69  67  93 CALM      30.02F
FORT SMITH     PTCLDY    73  70  90 CALM      30.00S
HARRISON       CLEAR     65  63  93 SE8       30.05R
BENTONVILLE    PTCLDY    70  64  83 S6        30.02F
ROGERS         PTCLDY    69  66  90 S7        30.03F
SILOAM SPGS    PTCLDY    70  63  78 S8        30.03S
HIGHFILL       PTCLDY    69  68  96 S6        30.02S
$$

ARZ004-005-016-251100-
NORTH CENTRAL ARKANSAS

CITY           SKY/WX    TMP DP  RH WIND       PRES   REMARKS
BATESVILLE     CLEAR     61  59  94 CALM      30.03F
FLIPPIN        CLEAR     63  59  88 CALM      30.05R
MTN HOME       CLEAR     63  59  87 CALM      30.04R
$$

ARZ040-041-251100-
WEST CENTRAL ARKANSAS

CITY           SKY/WX    TMP DP  RH WIND       PRES   REMARKS
MENA           MOCLDY    75  72  88 CALM      30.05S
MOUNT IDA      PTCLDY    70  68  93 CALM      30.03R
$$

ARZ009-017-025-026-028-251100-
NORTHEAST ARKANSAS

CITY           SKY/WX    TMP DP  RH WIND       PRES   REMARKS
CORNING        FAIR      63  63 100 CALM      30.04R
JONESBORO      CLEAR     61  60  97 CALM      30.02F
NEWPORT        CLEAR     64  63  97 CALM      30.04F
WALNUT RIDGE   CLEAR     64  59  82 NW3       30.01F
BLYTHEVILLE    CLEAR     63  62  97 E3        30.03F
$$

ARZ022-023-033-042-044-251100-
CENTRAL ARKANSAS

CITY           SKY/WX    TMP DP  RH WIND       PRES   REMARKS
LITTLE ROCK    CLEAR     66  62  87 CALM      30.04S
N LITTLE ROCK    N/A     65  62  91 SW5       30.04S
SEARCY         CLEAR     62  61  97 CALM      30.05S
HOT SPRINGS    CLOUDY    70  64  81 CALM      30.04F
RUSSELLVILLE   CLEAR     67  65  93 CALM      30.02F
CLINTON        CLOUDY    63  63 100 CALM      30.05F
$$

ARZ036-251100-
EAST ARKANSAS

CITY           SKY/WX    TMP DP  RH WIND       PRES   REMARKS
WEST MEMPHIS   CLEAR     63  63 100 CALM      30.02S
$$

ARZ050-053-066-070-073-251100-
SOUTHWEST ARKANSAS

CITY           SKY/WX    TMP DP  RH WIND       PRES   REMARKS
ARKADELPHIA    FAIR      69  69 100 CALM      30.05R
CAMDEN         CLEAR     66  64  94 CALM      30.03F FOG
TEXARKANA      CLEAR     71  70  96 CALM      30.03F FOG
EL DORADO      PTCLDY    71  68  90 CALM      30.04S
DE QUEEN       FOG       70  69  97 CALM      30.01F VSB 1/2
$$

ARZ056-057-069-251100-
SOUTHEAST ARKANSAS

CITY           SKY/WX    TMP DP  RH WIND       PRES   REMARKS
PINE BLUFF     CLEAR     61  60  97 CALM      30.04R
STUTTGART      CLEAR     64  61  88 NW3       30.04S
MONTICELLO     CLEAR     63  60  90 NW3       30.03S

$$




USA.gov is the U.S. government's official web portal to all federal, state and local government web resources and services.